[[{"header":{"parameterUnit":"m.s-1","parameterCategory":1,"la1":30.2991,"la2":30.254,"lo1":-89.0895,"lo2":-89.0444,"dy":0.0017,"dx":0.0017,"nx":28,"ny":28,"refTime":"2025-03-21T21:00:00:Z","depth":0,"parameterNumber":2,"parameterNumberName":"U-component_of_WINDS"},"data":[0,0,0,0,0,0,0,0,0,0,0,0,0,0,0,0,0,0,0,0,0,0,0,0,0,0,0,0,0,0,0,0,0,0,0,0,0,0,0,0,0,0,0,0,0,0,0,0,0,0,0,0,0,0,0,0,0,0,-0.0267,-0.0266,0,-0.0203,-0.0202,-0.0201,-0.0167,-0.0167,-0.0167,-0.0166,-0.0101,-0.01,-0.0098,0,0,0,0,0,0,0,0,0,0,0,0,0,-0.036,-0.0358,-0.0267,-0.0266,-0.0265,-0.0203,-0.0202,-0.0201,-0.0167,-0.0167,-0.0167,-0.0166,-0.0102,-0.01,-0.0098,0,0,0,0,0,0,0,0,0,0,0,0,0,-0.031,-0.0358,-0.0267,-0.024,-0.0237,-0.0203,-0.0202,-0.0201,-0.0167,-0.0167,-0.0167,-0.0166,-0.0103,-0.01,-0.0098,-0.0085,0,0,-0.009,-0.0089,0,0,0,0,0,0,0,0,-0.0313,-0.0307,-0.0245,-0.0242,-0.0239,-0.0193,-0.0211,-0.0162,-0.0167,-0.0194,-0.0166,-0.0166,-0.0132,-0.0127,-0.0115,-0.0082,-0.0079,-0.009,-0.0088,-0.0087,-0.0087,0,0,0,0,0,0,0,-0.0316,-0.0309,-0.0241,-0.0244,-0.024,-0.0232,-0.0225,-0.0202,-0.0164,-0.0191,-0.0189,-0.0181,-0.013,-0.0118,-0.0113,-0.0078,-0.009,-0.0088,-0.0086,-0.0085,-0.0031,-0.0031,0,0,0,0,0,0,-0.0324,-0.0312,-0.0243,-0.024,-0.0276,-0.0231,-0.0222,-0.0208,-0.0164,-0.0158,-0.0182,-0.018,-0.0122,-0.0116,-0.0111,-0.0093,-0.0087,-0.0085,-0.0084,-0.0031,-0.0031,-0.0032,0,0,0,0,0,0,-0.0326,-0.0318,-0.0246,-0.0275,-0.0265,-0.0229,-0.0213,-0.0206,-0.0194,-0.0157,-0.015,-0.0176,-0.0122,-0.0115,-0.0092,-0.0091,-0.0084,-0.0082,-0.0031,-0.0031,-0.0031,-0.0058,0,0,0,0,0,0,-0.0329,-0.0319,-0.0314,-0.0275,-0.0264,-0.0228,-0.0213,-0.0205,-0.019,-0.0187,-0.015,-0.0144,-0.0121,-0.0096,-0.0089,-0.0087,-0.008,-0.0031,-0.0031,-0.0031,-0.0057,-0.0059,-0.0061,0,0,0,0,0,-0.0332,-0.0324,-0.0314,-0.0305,-0.0256,-0.0228,-0.0221,-0.0195,-0.019,-0.0184,-0.0161,-0.0145,-0.0092,-0.0094,-0.0086,-0.0083,-0.0031,-0.0031,-0.0031,-0.0057,-0.0059,-0.0061,0,0,0,0,0,0,-0.0363,-0.0318,-0.0306,-0.0285,-0.026,-0.0222,-0.0214,-0.0199,-0.0175,-0.0174,-0.0143,-0.0135,-0.0115,-0.0097,-0.0099,-0.0069,-0.006,-0.0059,-0.0082,-0.0084,-0.0085,-0.009,-0.0078,0,0,0,0,0,-0.0367,-0.0347,-0.0309,-0.0294,-0.0283,-0.0251,-0.0237,-0.0219,-0.0193,-0.0182,-0.0157,-0.0132,-0.0109,-0.0095,-0.0073,-0.0055,-0.0046,-0.0049,-0.0051,-0.0053,-0.0052,-0.0041,-0.0042,-0.0032,-0.0032,-0.0032,0,0,-0.0376,-0.0349,-0.0338,-0.03,-0.0279,-0.0259,-0.0242,-0.0222,-0.0208,-0.0179,-0.0156,-0.0137,-0.0107,-0.0086,-0.0076,-0.0071,-0.0053,-0.0053,-0.0054,-0.0053,-0.0042,-0.0043,-0.0044,-0.0032,-0.0032,-0.0032,0,0,-0.0381,-0.0359,-0.0344,-0.0323,-0.0292,-0.027,-0.0267,-0.0231,-0.0217,-0.0193,-0.0172,-0.0154,-0.0116,-0.0096,-0.0081,-0.008,-0.0064,-0.0073,-0.0083,-0.0073,-0.0074,-0.0074,-0.0074,-0.0075,-0.0072,-0.0073,-0.0073,0,-0.0396,-0.0366,-0.0338,-0.032,-0.0304,-0.0277,-0.0262,-0.0244,-0.0206,-0.0196,-0.019,-0.0143,-0.0121,-0.0095,-0.0095,-0.0083,-0.0079,-0.0077,-0.0076,-0.0076,-0.0076,-0.0076,-0.0076,-0.0074,-0.0074,-0.0074,-0.0073,0,-0.0386,-0.0365,-0.0357,-0.0322,-0.0305,-0.0288,-0.0259,-0.0245,-0.0229,-0.0208,-0.0185,-0.0158,-0.0129,-0.0122,-0.0106,-0.0095,-0.0092,-0.0082,-0.0072,-0.0079,-0.0078,-0.0078,-0.0076,-0.0075,-0.0075,-0.0074,0,0,-0.0409,-0.0359,-0.0356,-0.034,-0.0303,-0.0287,-0.027,-0.0242,-0.0231,-0.0206,-0.0191,-0.016,-0.015,-0.0133,-0.0114,-0.0106,-0.0107,-0.0096,-0.0095,-0.01,-0.0094,-0.0102,-0.0102,-0.0097,-0.0097,-0.0097,-0.0096,0,-0.0409,-0.0376,-0.0351,-0.0328,-0.0309,-0.0284,-0.0269,-0.0245,-0.0226,-0.0207,-0.0185,-0.0164,-0.0152,-0.0142,-0.0132,-0.0109,-0.0106,-0.0109,-0.0083,-0.0082,-0.0091,-0.0102,-0.0111,-0.0112,-0.0096,-0.0096,-0.0096,0,-0.0406,-0.0382,-0.0357,-0.0323,-0.0314,-0.0301,-0.0274,-0.0256,-0.0229,-0.0215,-0.0196,-0.0177,-0.0158,-0.015,-0.0124,-0.0126,-0.0114,-0.0101,-0.0101,-0.0097,-0.009,-0.0099,-0.0111,-0.0112,-0.0095,-0.0095,-0.0095,0,-0.0426,-0.0387,-0.0367,-0.0354,-0.0314,-0.0305,-0.0288,-0.0261,-0.0246,-0.0222,-0.0213,-0.0187,-0.0173,-0.0154,-0.0129,-0.0126,-0.0105,-0.0095,-0.0094,-0.0095,-0.0091,-0.0091,-0.0101,-0.0083,-0.0083,-0.0083,-0.0083,0,-0.0429,-0.0415,-0.0376,-0.0364,-0.0347,-0.0319,-0.0303,-0.0284,-0.026,-0.0244,-0.0221,-0.0206,-0.0174,-0.0155,-0.0135,-0.0117,-0.011,-0.0099,-0.0094,-0.0102,-0.0103,-0.0093,-0.0093,-0.0083,-0.0083,-0.0083,-0.0083,0,-0.0448,-0.0422,-0.0398,-0.0362,-0.0353,-0.0342,-0.0312,-0.0299,-0.0279,-0.0259,-0.0252,-0.022,-0.0197,-0.0171,-0.0139,-0.0126,-0.0109,-0.0101,-0.0118,-0.0115,-0.0116,-0.0116,-0.012,-0.0119,-0.0101,-0.0101,-0.0101,0,-0.0453,-0.0441,-0.0404,-0.0391,-0.0375,-0.0355,-0.034,-0.0312,-0.0297,-0.0266,-0.0257,-0.0233,-0.0211,-0.0176,-0.015,-0.0126,-0.0118,-0.0121,-0.0114,-0.0122,-0.0119,-0.012,-0.0119,-0.0123,-0.0123,-0.0123,-0.0124,0,-0.0463,-0.045,-0.0429,-0.0404,-0.0387,-0.0365,-0.0343,-0.0334,-0.0302,-0.0287,-0.0263,-0.0247,-0.0215,-0.0191,-0.0164,-0.0146,-0.013,-0.0126,-0.0125,-0.0132,-0.0143,-0.0137,-0.0123,-0.0126,-0.0126,-0.0126,-0.0126,-0.0125,-0.0475,-0.0464,-0.0436,-0.0414,-0.0394,-0.0374,-0.0361,-0.0339,-0.0319,-0.029,-0.0275,-0.0252,-0.0226,-0.0187,-0.017,-0.0152,-0.0146,-0.0144,-0.0144,-0.0144,-0.0146,-0.0145,-0.0147,-0.0147,-0.0147,-0.0147,-0.0147,0,-0.0485,-0.0466,-0.0445,-0.0415,-0.0398,-0.0384,-0.0358,-0.0345,-0.0325,-0.0302,-0.0282,-0.0255,-0.0232,-0.0204,-0.018,-0.017,-0.0162,-0.0165,-0.0165,-0.0162,-0.0152,-0.0156,-0.0172,-0.0172,-0.0172,-0.0172,-0.0172,-0.0172,-0.0488,-0.0468,-0.0453,-0.0423,-0.0404,-0.0382,-0.0369,-0.035,-0.0332,-0.0303,-0.0284,-0.0266,-0.0241,-0.0214,-0.0193,-0.0185,-0.0177,-0.0182,-0.0173,-0.0164,-0.0162,-0.016,-0.0164,-0.0181,-0.0181,-0.0184,-0.0184,-0.0184]},{"header":{"parameterUnit":"m.s-1","parameterCategory":1,"la1":30.2991,"la2":30.254,"lo1":-89.0895,"lo2":-89.0444,"dy":0.0017,"dx":0.0017,"nx":28,"ny":28,"refTime":"2025-03-21T21:00:00:Z","depth":0,"parameterNumber":3,"parameterNumberName":"V-component_of_WINDS"},"data":[0,0,0,0,0,0,0,0,0,0,0,0,0,0,0,0,0,0,0,0,0,0,0,0,0,0,0,0,0,0,0,0,0,0,0,0,0,0,0,0,0,0,0,0,0,0,0,0,0,0,0,0,0,0,0,0,0,0,4.5373,4.5373,0,4.5405,4.5405,4.5406,4.5339,4.5337,4.5335,4.5333,4.5365,4.5367,4.537,0,0,0,0,0,0,0,0,0,0,0,0,0,4.5251,4.5253,4.5373,4.5373,4.5373,4.5405,4.5405,4.5406,4.534,4.5337,4.5335,4.5332,4.5364,4.5367,4.537,0,0,0,0,0,0,0,0,0,0,0,0,0,4.5295,4.5254,4.5372,4.5344,4.5342,4.5405,4.5405,4.5406,4.534,4.5337,4.5334,4.5331,4.5362,4.5367,4.5371,4.5462,0,0,4.5384,4.5386,0,0,0,0,0,0,0,0,4.5293,4.53,4.5348,4.5346,4.5344,4.5365,4.5374,4.5424,4.5341,4.5341,4.5333,4.5329,4.5367,4.5371,4.5384,4.5463,4.5465,4.5384,4.5387,4.5389,4.539,0,0,0,0,0,0,0,4.529,4.5298,4.5385,4.5349,4.5346,4.5329,4.5332,4.5383,4.5372,4.5341,4.5336,4.5341,4.5365,4.538,4.5384,4.5465,4.5384,4.5388,4.5391,4.5392,4.5618,4.5621,0,0,0,0,0,0,4.5291,4.5296,4.5384,4.5386,4.531,4.5334,4.5337,4.5361,4.5371,4.5369,4.5344,4.5338,4.5374,4.5379,4.5385,4.549,4.5389,4.5393,4.5395,4.5615,4.5619,4.5622,0,0,0,0,0,0,4.5288,4.5299,4.5383,4.534,4.5349,4.5339,4.5367,4.5364,4.5378,4.5373,4.5371,4.5361,4.5372,4.5379,4.5443,4.5491,4.5395,4.5398,4.561,4.5616,4.5621,4.5703,0,0,0,0,0,0,4.5285,4.5299,4.5334,4.5341,4.5352,4.5441,4.537,4.5367,4.5386,4.5379,4.5389,4.5387,4.537,4.5437,4.5447,4.5495,4.5402,4.5606,4.5613,4.5619,4.5696,4.571,4.5723,0,0,0,0,0,4.5281,4.5356,4.5336,4.5347,4.5396,4.5444,4.545,4.5429,4.539,4.5425,4.5421,4.5387,4.5484,4.5444,4.5455,4.5505,4.5603,4.5611,4.5618,4.569,4.5707,4.5722,0,0,0,0,0,0,4.5355,4.5357,4.5335,4.5414,4.543,4.5433,4.5476,4.5449,4.5475,4.5467,4.544,4.5442,4.5511,4.5514,4.5469,4.5592,4.5537,4.5547,4.5587,4.5604,4.5617,4.5614,4.5405,0,0,0,0,0,4.538,4.542,4.5419,4.549,4.5499,4.5486,4.5507,4.5489,4.5504,4.551,4.5511,4.5526,4.5559,4.5582,4.5612,4.5696,4.5696,4.5736,4.5749,4.576,4.5769,4.5811,4.5828,4.5648,4.5648,4.5648,0,0,4.5434,4.5439,4.5466,4.5505,4.5515,4.5555,4.5492,4.5538,4.5568,4.5516,4.5576,4.5578,4.5592,4.5666,4.5698,4.5671,4.5819,4.577,4.5779,4.5782,4.5821,4.5838,4.5853,4.5653,4.5652,4.5651,0,0,4.5551,4.556,4.5619,4.563,4.5645,4.5636,4.5651,4.5658,4.5657,4.5717,4.5678,4.5712,4.5772,4.5783,4.5796,4.5916,4.5885,4.5927,4.5997,4.6038,4.6052,4.6065,4.6106,4.6121,4.5936,4.5936,4.5937,0,4.5615,4.5676,4.5652,4.5701,4.5718,4.5674,4.5732,4.5743,4.5768,4.578,4.5749,4.5821,4.5828,4.5902,4.5932,4.5945,4.5958,4.5925,4.6052,4.6065,4.6076,4.6115,4.613,4.5941,4.5941,4.594,4.594,0,4.5752,4.5795,4.584,4.5865,4.5887,4.5941,4.5924,4.595,4.593,4.5924,4.5984,4.5991,4.6021,4.6038,4.6019,4.611,4.6092,4.6057,4.6001,4.6098,4.6134,4.6149,4.5948,4.5947,4.5945,4.5944,0,0,4.5918,4.5928,4.5945,4.5955,4.5968,4.6,4.605,4.608,4.6101,4.612,4.616,4.621,4.6178,4.6193,4.6176,4.6212,4.6305,4.6173,4.6173,4.6196,4.6402,4.6427,4.6445,4.6285,4.6287,4.629,4.6401,0,4.6032,4.612,4.61,4.6185,4.6223,4.618,4.6224,4.6236,4.6232,4.6262,4.6257,4.6292,4.6248,4.6256,4.6291,4.6286,4.6346,4.6278,4.632,4.6322,4.6317,4.6464,4.6491,4.6596,4.6415,4.6417,4.6419,0,4.6178,4.6202,4.6291,4.6296,4.6311,4.6351,4.6376,4.6406,4.6418,4.6412,4.6429,4.6404,4.6452,4.6396,4.6461,4.6416,4.6432,4.6432,4.6436,4.6438,4.6376,4.6469,4.6629,4.6644,4.6441,4.6439,4.6438,0,4.6288,4.6342,4.6401,4.6411,4.642,4.6448,4.6453,4.6462,4.648,4.6502,4.6513,4.654,4.6555,4.6576,4.6558,4.6519,4.6625,4.6568,4.662,4.6621,4.6644,4.6642,4.6807,4.6657,4.6657,4.6656,4.6656,0,4.6418,4.6473,4.645,4.6487,4.6548,4.6524,4.6584,4.6584,4.6592,4.6627,4.6592,4.6625,4.66,4.6631,4.6617,4.6672,4.668,4.6675,4.667,4.6677,4.6678,4.6687,4.6678,4.666,4.666,4.6659,4.6658,0,4.655,4.6537,4.6599,4.6601,4.6603,4.6647,4.6649,4.6682,4.6675,4.6719,4.6728,4.6716,4.6751,4.6735,4.6771,4.6762,4.6832,4.6819,4.6828,4.6824,4.6876,4.6871,4.7051,4.7073,4.691,4.6912,4.6913,0,4.6633,4.6675,4.6681,4.6702,4.6709,4.6743,4.6762,4.6739,4.676,4.6776,4.6807,4.6838,4.6862,4.6919,4.6913,4.694,4.6926,4.6987,4.6929,4.6935,4.6925,4.6922,4.6925,4.6998,4.7,4.7002,4.7003,0,4.6781,4.6772,4.6801,4.6827,4.685,4.6869,4.6885,4.6904,4.6882,4.6906,4.6941,4.6959,4.6996,4.7027,4.705,4.7053,4.7024,4.7021,4.7034,4.7041,4.7044,4.7042,4.6858,4.7017,4.7016,4.7015,4.7014,4.7013,4.689,4.6925,4.6934,4.6966,4.6976,4.6991,4.7022,4.7018,4.7047,4.7075,4.7059,4.7099,4.7109,4.7137,4.7144,4.7175,4.715,4.717,4.7174,4.7179,4.7185,4.7041,4.7179,4.7179,4.7178,4.7178,4.7177,0,4.7035,4.7039,4.7069,4.7092,4.7117,4.7088,4.7103,4.7126,4.7162,4.7173,4.7197,4.7236,4.7265,4.7261,4.7288,4.7313,4.73,4.732,4.7318,4.7319,4.7207,4.7192,4.733,4.733,4.733,4.733,4.733,4.733,4.7114,4.717,4.7162,4.7221,4.7224,4.7263,4.7275,4.7288,4.7297,4.7342,4.7366,4.7363,4.7368,4.7395,4.742,4.7418,4.7428,4.7454,4.7447,4.7342,4.7327,4.7312,4.7298,4.7457,4.7457,4.7556,4.7557,4.7558]}]]